www.pogodaiklimat.ru

Погода и климат >> Архив погоды >> Испания >> Севилья


АРХИВ ПОГОДЫ в Севилье

Время (UTC), дата Ветер
(напр.,м/с)
 
Видим.   Явления Облачность Т
(С)
Тd
(С)
f
(%)
Тe
(С)
Тes
(С)
Комфортность P
(гПа)
Po
(гПа)
Тmin
(С)
Tmax
(С)
R
(мм)
R24
(мм)
S
(см)
13 18.06 ЮЗ 5 н/о н/о +26.7 +13.8 45 +29 +29 жарко 1016.3 1012.7
14 18.06 ЮЗ 6 н/о н/о +27.3 +13.8 43 +29 +29 жарко 1016.0 1012.4
15 18.06 З 6 30 км 1/1 1000 м
[Cu hum]
+27.9 +14.1 43 +30 +36 жарко 1015.6 1012.0
16 18.06 ЮЗ 5 н/о н/о +27.4 +14.1 44 +30 +30 жарко 1015.6 1012.0
17 18.06 З 6 н/о н/о +27.2 +14.2 45 +29 +29 жарко 1015.3 1011.7
18 18.06 З 7 30 км 1/1 1000 м
[Cu hum]
+25.5 +14.9 52 +28 +29 жарко 1015.8 1012.2 +28.2
19 18.06 З 5 н/о н/о +24.4 +14.8 55 +27 +27 жарко 1015.9 1012.3
20 18.06 З 5 н/о н/о +22.4 +15.0 63 +26 +26 жарко 1016.1 1012.5
21 18.06 ЮЗ 5 30 км 1/0
[Ci fib]
+21.3 +15.6 70 +25 +25 комфорт 1016.7 1013.1
22 18.06 ЮЗ 5 н/о н/о +20.2 +16.0 77 +23 +23 комфорт 1017.1 1013.5
23 18.06 ЮЗ 5 н/о н/о +19.5 +16.5 83 +21 +21 комфорт 1017.0 1013.4
00 19.06 ЮЗ 4 30 км 4/1 300 м
[St Cc]
+19.0 +16.4 85 +20 +20 по сезону 1017.1 1013.4
01 19.06 ЮЗ 3 н/о н/о +18.6 +16.2 86 +20 +20 по сезону 1017.1 1013.4
02 19.06 ЮЗ 3 н/о н/о +18.4 +16.0 86 +19 +19 по сезону 1016.8 1013.1
03 19.06 ЮЗ 4 30 км 6/6 300 м
[St Ci fib]
+18.3 +15.7 85 +19 +19 по сезону 1016.8 1013.1
04 19.06 ЮЗ 3 н/о н/о +18.4 +15.6 84 +19 +19 по сезону 1016.8 1013.1
05 19.06 З 2 н/о н/о +18.4 +15.5 83 +19 +19 по сезону 1016.9 1013.2
06 19.06 СЗ 3 30 км 8/6 300 м
[Sc Ci fib]
+18.8 +15.5 81 +20 +20 по сезону 1017.2 1013.5 +18.1
07 19.06 С 2 н/о н/о +19.6 +15.5 77 +22 +22 комфорт 1017.5 1013.9
08 19.06 СЗ 2 н/о н/о +21.1 +15.5 70 +24 +24 комфорт 1017.5 1013.9
09 19.06 С 3 25 км 5/5 600 м
[Cu Sc]
+22.7 +15.3 63 +27 +32 душно 1017.4 1013.8
10 19.06 С 3 н/о н/о +24.4 +14.8 55 +27 +27 жарко 1017.4 1013.8
11 19.06 З 3 н/о н/о +26.1 +13.6 46 +28 +28 жарко 1017.3 1013.7
12 19.06 З 3 30 км 4/4 1000 м
[Cu Sc]
+27.5 +13.1 41 +29 +39 жарко 1016.8 1013.2
13 19.06 З 3 н/о н/о +28.8 +12.5 37 +30 +30 жарко 1015.8 1012.3
14 19.06 ЮЗ 4 н/о н/о +29.9 +11.5 32 +30 +30 жарко 1015.0 1011.5
15 19.06 З 4 30 км 3/1 600 м
[Cu hum Ci fib]
+30.6 +11.5 31 +31 +40 жарко 1014.3 1010.8
16 19.06 ЮЗ 4 н/о н/о +30.4 +13.2 35 +32 +32 жарко 1013.9 1010.4
17 19.06 ЮЗ 7 н/о н/о +28.6 +14.4 42 +31 +31 жарко 1013.5 1010.0
18 19.06 ЮЗ 9 30 км ясно +26.8 +14.8 48 +29 +30 жарко 1013.8 1010.2 +31.0
19 19.06 ЮЗ 7 н/о н/о +25.0 +15.0 54 +28 +28 жарко 1014.3 1010.7
20 19.06 ЮЗ 7 н/о н/о +22.7 +14.8 61 +26 +26 жарко 1014.7 1011.1
21 19.06 ЮЗ 5 30 км 1/0
[Ci fib]
+21.4 +15.5 69 +25 +25 комфорт 1015.2 1011.6
22 19.06 ЮЗ 4 н/о н/о +20.3 +15.9 76 +23 +23 комфорт 1015.7 1012.1
23 19.06 ЮЗ 5 н/о н/о +19.6 +16.4 82 +22 +22 комфорт 1015.5 1011.9
00 20.06 ЮЗ 4 30 км ясно +19.4 +16.4 83 +21 +21 комфорт 1015.4 1011.8
01 20.06 ЮЗ 3 н/о н/о +18.8 +15.8 83 +20 +20 прохладно 1015.2 1011.5
02 20.06 ЮЗ 3 н/о н/о +18.5 +15.6 83 +20 +20 по сезону 1014.9 1011.2
03 20.06 Ю 3 30 км 1/1 300 м
[St]
+18.2 +15.1 82 +19 +19 по сезону 1014.8 1011.1
04 20.06 Ю 2 н/о н/о +17.9 +14.6 81 +18 +18 прохладно 1015.1 1011.4
05 20.06 Ю 1 н/о н/о +17.4 +14.1 81 +18 +18 прохладно 1015.2 1011.5
06 20.06 ЮВ 1 30 км 8/8 1000 м
[Sc]
+18.5 +15.0 80 +20 +20 по сезону 1015.3 1011.6 +17.4
07 20.06 Ю 2 н/о н/о +20.4 +14.5 69 +24 +24 комфорт 1015.5 1011.9
08 20.06 ЮЗ 3 н/о н/о +21.4 +14.1 63 +24 +24 комфорт 1015.6 1012.0
09 20.06 ЮЗ 3 30 км 4/3
[Cu med, cong Ci sp]
+23.7 +13.8 54 +26 +32 жарко 1015.5 1011.9
10 20.06 Ю 4 н/о н/о +25.4 +12.3 44 +27 +27 жарко 1015.3 1011.7
11 20.06 ЮЗ 5 н/о н/о +26.5 +12.7 42 +28 +28 жарко 1015.3 1011.7
12 20.06 ЮЗ 5 30 км 5/5
[Cu hum Ci fib]
+27.2 +11.7 38 +28 +34 жарко 1015.1 1011.5
13 20.06 ЮЗ 5 н/о н/о +27.8 +13.0 40 +29 +29 жарко 1014.5 1010.9
14 20.06 ЮЗ 7 н/о н/о +28.3 +13.3 40 +30 +30 жарко 1013.6 1010.1
15 20.06 ЮЗ 7 30 км 3/3
[Cu hum]
+27.9 +13.8 42 +30 +32 жарко 1013.2 1009.7
16 20.06 ЮЗ 8 н/о н/о +27.8 +13.0 40 +29 +29 жарко 1013.2 1009.6
17 20.06 ЮЗ 9 н/о н/о +26.4 +12.8 43 +28 +28 жарко 1012.9 1009.3
18 20.06 ЮЗ 8 30 км ясно +25.5 +12.3 44 +27 +28 жарко 1013.1 1009.5 +28.5
19 20.06 ЮЗ 6 н/о н/о +24.5 +12.4 47 +26 +26 жарко 1013.2 1009.6
20 20.06 ЮЗ 4 н/о н/о +22.9 +13.1 54 +26 +26 жарко 1013.1 1009.5
21 20.06 Ю 4 30 км ясно +21.5 +13.7 61 +24 +24 комфорт 1013.8 1010.2
22 20.06 ЮЗ 5 н/о н/о +20.6 +14.3 67 +23 +23 комфорт 1014.4 1010.8
23 20.06 Ю 3 н/о н/о +19.9 +14.3 70 +22 +22 комфорт 1014.9 1011.3
00 21.06 Ю 2 30 км ясно +19.6 +13.9 70 +22 +22 комфорт 1014.8 1011.2
01 21.06 Ю 1 н/о н/о +18.7 +13.9 74 +21 +21 комфорт 1015.1 1011.4
02 21.06 Ю 2 н/о н/о +17.4 +13.7 79 +18 +18 прохладно 1015.2 1011.5
03 21.06 ЮВ 1 30 км ясно +16.2 +13.1 82 +17 +17 прохладно 1015.2 1011.5
04 21.06 Ю 2 н/о н/о +15.0 +12.6 86 +15 +15 холодно 1015.3 1011.6
05 21.06 Ю 1 н/о н/о +15.2 +12.3 83 +16 +16 прохладно 1015.6 1011.9
06 21.06 штиль 0 30 км 1/0
[Ci fib]
+17.2 +13.1 77 +17 +18 прохладно 1016.1 1012.4 +15.0
07 21.06 СВ 3 н/о н/о +19.8 +11.8 60 +22 +22 комфорт 1016.4 1012.8
08 21.06 СВ 4 н/о н/о +21.3 +11.0 52 +23 +23 комфорт 1016.6 1013.0
09 21.06 С 2 30 км 1/0
[Ci fib]
+23.0 +11.1 47 +25 +37 комфорт 1016.5 1012.9
10 21.06 ЮЗ 2 н/о н/о +25.2 +11.0 41 +26 +26 жарко 1016.2 1012.6
11 21.06 З 3 н/о н/о +26.6 +10.2 36 +27 +27 жарко 1016.0 1012.4
12 21.06 З 3 30 км 1/0
[Ci fib]
+27.5 +8.7 31 +28 +46 жарко 1015.5 1011.9
13 21.06 С 2 н/о н/о +29.4 +8.4 27 +29 +29 жарко 1014.4 1010.9
14 21.06 СЗ 3 н/о н/о +31.2 +7.0 22 +30 +30 жарко 1013.9 1010.4
15 21.06 З 3 30 км 1/0
[Ci fib]
+31.5 +5.8 20 +30 +41 жарко 1013.3 1009.8
16 21.06 З 2 н/о н/о +32.1 +6.3 20 +30 +30 жарко 1012.7 1009.2
17 21.06 ЮЗ 5 н/о н/о +31.8 +10.3 27 +32 +32 жарко 1012.5 1009.0
18 21.06 ЮЗ 7 30 км 5/0
[Ci fib]
+29.9 +10.4 30 +30 +31 жарко 1012.6 1009.1 +32.8
19 21.06 ЮЗ 5 н/о н/о +28.1 +11.6 36 +29 +29 жарко 1012.7 1009.2
20 21.06 ЮЗ 5 н/о н/о +25.3 +12.5 45 +27 +27 жарко 1013.2 1009.6
21 21.06 Ю 5 30 км 3/0
[Ci sp]
+23.2 +12.8 52 +26 +26 жарко 1013.9 1010.3
22 21.06 Ю 4 н/о н/о +21.7 +13.3 59 +24 +24 комфорт 1014.4 1010.8
23 21.06 Ю 3 н/о н/о +20.6 +13.3 63 +23 +23 комфорт 1014.5 1010.9
00 22.06 Ю 3 30 км ясно +19.8 +12.5 63 +22 +22 комфорт 1014.4 1010.8
01 22.06 Ю 1 н/о н/о +19.2 +12.2 64 +21 +21 комфорт 1014.3 1010.7
02 22.06 СВ 1 н/о н/о +18.4 +12.4 68 +20 +20 по сезону 1014.4 1010.7
03 22.06 В 1 30 км ясно +16.7 +12.0 74 +18 +18 прохладно 1013.9 1010.2
04 22.06 ЮВ 2 н/о н/о +16.1 +11.9 76 +16 +16 холодно 1013.9 1010.2
05 22.06 ЮВ 2 н/о н/о +15.7 +11.7 77 +16 +16 прохладно 1014.1 1010.4
06 22.06 ЮВ 1 30 км ясно +17.8 +12.7 72 +19 +20 по сезону 1014.8 1011.1 +15.5
07 22.06 Ю 2 н/о н/о +21.1 +12.7 59 +23 +23 комфорт 1015.1 1011.5
08 22.06 ЮЗ 3 н/о н/о +22.9 +13.2 54 +26 +26 жарко 1015.5 1011.9
09 22.06 З 2 30 км 6/0
[Ci fib]
+25.3 +13.2 47 +27 +38 жарко 1015.3 1011.7
10 22.06 З 2 н/о н/о +27.4 +11.9 38 +29 +29 жарко 1015.0 1011.4
11 22.06 З 3 н/о н/о +29.3 +11.4 33 +30 +30 жарко 1014.6 1011.1
12 22.06 ЮЗ 3 30 км 4/0
[Cs]
+31.3 +10.1 27 +31 +48 жарко 1013.9 1010.4
13 22.06 З 3 н/о н/о +32.3 +10.3 26 +32 +32 жарко 1013.1 1009.6
14 22.06 ЮЗ 4 н/о н/о +33.4 +7.4 20 +32 +32 жарко 1012.4 1008.9
15 22.06 ЮЗ 4 30 км 4/0
[Cs]
+34.0 +7.3 19 +32 +42 жарко 1011.8 1008.3
16 22.06 ЮЗ 5 н/о н/о +33.3 +12.9 29 +34 +34 очень
жарко
1011.6 1008.1
17 22.06 ЮЗ 7 н/о н/о +31.7 +12.0 30 +32 +32 жарко 1011.2 1007.7
18 22.06 ЮЗ 7 30 км 1/0
[Ci fib]
+30.9 +11.8 31 +31 +32 жарко 1011.3 1007.8 +34.3
19 22.06 ЮЗ 6 н/о н/о +28.6 +12.1 36 +30 +30 жарко 1011.6 1008.1
20 22.06 ЮЗ 6 н/о н/о +26.1 +12.3 42 +28 +28 жарко 1012.2 1008.6
21 22.06 ЮЗ 4 30 км 1/0
[Ci fib]
+24.3 +12.9 49 +26 +26 жарко 1012.9 1009.3
22 22.06 ЮЗ 5 н/о н/о +22.2 +14.3 61 +25 +25 комфорт 1013.5 1009.9
23 22.06 ЮЗ 4 н/о н/о +21.0 +12.4 58 +24 +24 комфорт 1013.9 1010.3
00 23.06 Ю 3 н/о н/о +20.2 +12.4 61 +22 +22 комфорт 1013.8 1010.2
01 23.06 Ю 4 н/о н/о +19.7 +13.4 67 +22 +22 комфорт 1013.6 1010.0
02 23.06 ЮЗ 2 н/о н/о +19.2 +13.8 71 +21 +21 комфорт 1013.3 1009.7
03 23.06 ЮВ 2 30 км ясно +17.6 +13.3 76 +18 +18 прохладно 1013.0 1009.3
04 23.06 ЮВ 2 н/о н/о +16.8 +12.7 77 +17 +17 прохладно 1013.5 1009.8
05 23.06 ЮВ 2 н/о н/о +16.4 +12.8 79 +16 +16 прохладно 1013.6 1009.9
06 23.06 ЮВ 2 30 км 1/0
[Ci fib]
+18.3 +13.2 72 +19 +20 по сезону 1013.6 1009.9 +16.3
07 23.06 Ю 1 н/о н/о +21.7 +14.6 64 +25 +25 комфорт 1013.8 1010.2
08 23.06 З 2 н/о н/о +23.1 +13.6 55 +26 +26 жарко 1014.0 1010.4
09 23.06 СЗ 3 30 км 3/0
[Ci fib]
+24.4 +13.9 52 +27 +35 жарко 1014.1 1010.5
10 23.06 З 3 н/о н/о +26.3 +14.9 49 +29 +29 жарко 1013.8 1010.2
11 23.06 З 2 н/о н/о +27.9 +15.7 47 +31 +31 душно 1013.4 1009.9
12 23.06 З 3 30 км 1/0
[Ci fib]
+29.7 +14.1 39 +32 +50 душно 1012.7 1009.2
13 23.06 ЮЗ 4 н/о н/о +31.1 +11.8 31 +32 +32 жарко 1012.2 1008.7
14 23.06 ЮЗ 4 н/о н/о +32.5 +12.5 30 +33 +33 жарко 1011.7 1008.2
15 23.06 ЮЗ 3 30 км 6/0
[Ci fib]
+32.8 +12.9 30 +33 +45 жарко 1011.2 1007.7
16 23.06 ЮЗ 4 н/о н/о +32.7 +13.8 32 +34 +34 очень
жарко
1010.7 1007.2
17 23.06 ЮЗ 5 н/о н/о +31.0 +15.4 39 +33 +33 душно 1010.3 1006.8
18 23.06 ЮЗ 7 30 км 9/0
[Ci fib]
+29.4 +15.9 44 +32 +33 душно 1010.4 1006.9 +33.1
19 23.06 ЮЗ 6 н/о н/о +27.7 +16.3 50 +31 +31 душно 1011.1 1007.6
20 23.06 ЮЗ 5 н/о н/о +25.9 +13.7 47 +28 +28 жарко 1011.5 1007.9
21 23.06 ЮЗ 5 30 км 8/0
[Cs]
+24.0 +13.8 53 +26 +26 жарко 1012.5 1008.9
22 23.06 ЮЗ 5 н/о н/о +23.2 +12.5 51 +26 +26 жарко 1013.2 1009.6
23 23.06 Ю 3 н/о н/о +22.2 +11.6 51 +24 +24 комфорт 1013.5 1009.9
00 24.06 Ю 3 30 км 8/0
[Cs]
+21.2 +13.1 60 +24 +24 комфорт 1013.6 1010.0
01 24.06 Ю 4 н/о н/о +20.2 +16.3 78 +23 +23 комфорт 1013.4 1009.8
02 24.06 Ю 5 н/о н/о +19.5 +16.9 85 +21 +21 комфорт 1013.1 1009.5
03 24.06 ЮЗ 5 30 км 9/9 100 м
[Sc]
+19.6 +17.6 88 +22 +22 комфорт 1013.2 1009.6
04 24.06 ЮЗ 4 н/о н/о +19.5 +17.8 90 +22 +22 комфорт 1013.3 1009.7
05 24.06 ЮЗ 3 н/о н/о +19.6 +17.7 89 +22 +22 комфорт 1013.5 1009.9
06 24.06 Ю 3 25 км 10/9 200 м
[Sc Ci sp]
+19.7 +17.7 88 +23 +23 комфорт 1013.7 1010.1 +19.4
07 24.06 Ю 3 н/о н/о +20.6 +17.2 81 +25 +25 комфорт 1014.4 1010.8
08 24.06 ЮЗ 3 н/о н/о +22.5 +16.2 68 +27 +27 душно 1014.6 1011.0
09 24.06 ЮЗ 3 30 км 5/4 600 м
[St Ac As]
+24.3 +16.6 62 +28 +33 душно 1014.6 1011.0
10 24.06 ЮЗ 5 н/о н/о +25.4 +16.2 57 +29 +29 душно 1014.5 1010.9
11 24.06 ЮЗ 4 н/о н/о +27.1 +17.3 55 +31 +31 душно 1014.2 1010.6
12 24.06 ЮЗ 5 30 км 3/1 600 м
[Cu hum Ac As Ci sp]
+28.5 +16.9 49 +32 +41 душно 1014.0 1010.5
13 24.06 ЮЗ 5 н/о н/о +29.0 +17.1 49 +33 +33 очень
душно
1013.5 1010.0
14 24.06 ЮЗ 6 н/о н/о +29.8 +17.6 48 +34 +34 очень
душно
1013.1 1009.6
15 24.06 ЮЗ 6 30 км 3/1
[Cu hum Ci sp]
+29.9 +17.0 46 +34 +38 очень
душно
1012.9 1009.4
16 24.06 ЮЗ 7 н/о н/о +30.1 +17.3 46 +34 +34 очень
душно
1012.8 1009.3
17 24.06 ЮЗ 8 н/о н/о +29.1 +16.7 47 +33 +33 очень
душно
1012.8 1009.3
18 24.06 ЮЗ 7 30 км 4/0
[Ac As Ci sp]
+28.7 +16.8 49 +32 +33 душно 1012.8 1009.3 +30.3
19 24.06 ЮЗ 5 н/о н/о +27.6 +17.2 53 +32 +32 очень
душно
1013.0 1009.5
20 24.06 ЮЗ 6 н/о н/о +24.8 +18.3 67 +29 +29 душно 1013.5 1009.9
21 24.06 ЮЗ 5 30 км 4/0
[Ci fib]
+23.6 +17.1 67 +27 +27 жарко 1014.1 1010.5
22 24.06 Ю 4 н/о н/о +22.2 +16.5 70 +26 +26 душно 1014.9 1011.3
23 24.06 Ю 4 30 км 1/0
[Ci fib]
+21.1 +16.3 74 +24 +24 комфорт 1015.0 1011.4
00 25.06 ЮЗ 5 30 км ясно +20.4 +16.8 80 +24 +24 комфорт 1015.2 1011.6
01 25.06 ЮЗ 4 н/о н/о +20.0 +17.3 84 +23 +23 комфорт 1014.9 1011.3
02 25.06 ЮЗ 2 н/о н/о +19.5 +17.1 86 +22 +22 комфорт 1014.7 1011.1
03 25.06 Ю 2 30 км ясно +18.4 +16.7 90 +20 +20 по сезону 1014.6 1010.9
04 25.06 Ю 2 н/о н/о +17.9 +16.6 92 +18 +18 прохладно 1014.6 1010.9
05 25.06 Ю 1 н/о н/о +18.1 +16.4 90 +19 +19 по сезону 1015.3 1011.6
06 25.06 В 1 30 км 1/0
[Ac As]
+19.5 +16.9 85 +23 +23 комфорт 1015.7 1012.1 +17.9
07 25.06 Ю 2 н/о ясно +21.6 +17.0 75 +26 +28 душно 1016.0 1012.4
08 25.06 ЮЗ 3 н/о н/о +23.3 +15.9 63 +28 +28 душно 1016.2 1012.6
09 25.06 ЮЗ 2 30 км ясно +25.0 +15.6 56 +28 +39 жарко 1016.2 1012.6
10 25.06 Ю 2 н/о н/о +26.5 +15.6 51 +30 +30 душно 1016.2 1012.6
11 25.06 ЮЗ 3 н/о н/о +28.1 +16.4 49 +32 +32 душно 1015.7 1012.1
12 25.06 ЮЗ 4 30 км ясно +29.0 +15.9 45 +32 +47 душно 1015.0 1011.5
13 25.06 ЮЗ 4 н/о н/о +30.9 +14.6 37 +33 +33 душно 1014.3 1010.8

 

Местоположение метеостанции Севилья (Испания): широта 37.42 долгота -5.90 высота над уровнем моря 31 м.

В архиве по умолчанию представлена погода в Севилье за последнюю неделю. Архивные данные за месяц целиком и за предыдущие месяцы, начиная с января 2011 года, Вы можете получить, выбрав интересующий диапазон дат из раскрывающегося списка и нажав кнопку "Ввод!".


*Определитесь, кто Вы:
робот инопланетянин человек

Внимание! Время в таблицах - всемирное. Для получения местного времени необходимо прибавить поправку, которая равна 1 ч.

Смотрите также архив погоды в соседних городах и на ближайших метеорологических станциях:

Погода в Морон-де-ла-Фронтере (Испания) (39 км)
Погода в Касалья-де-ла-Сьерра (Испания) (58 км)
Погода в Эсихе (Испания) (72 км)
Погода в Херес-де-ла-Фронтере (Испания) (76 км)
Погода в Эль-Ареносильо (Испания) (82 км)
Погода в Алахар - Кабезо Молин (Испания) (84 км)
Погода в Грасалеме (Испания) (87 км)
Погода в Льерене (Испания) (91 км)
Погода в Уэльве (Испания) (92 км)
Погода в Рода-де-Андалусия (Испания) (103 км)

Пояснения к столбцам:

Ветер - указаны скорость ветра в м/с - средняя за 10 мин, порывы в срок и между сроками (в фигурных скобках) и направление, откуда дует ветер: С - северный, СВ - северо-восточный, В - восточный, ЮВ - юго-восточный, Ю - южный, ЮЗ - юго-западный, З - западный, СЗ - северо-западный.
Видимость - горизонтальная дальность видимости в метрах или километрах. При видимости от 1 до 10 км при отсутствии осадков обычно наблюдается дымка, при ухудшении видимости до 1 км и менее - туман. В сухую погоду видимость может ухудшаться дымом, пылью или мглою.
Явления - указаны атмосферные явления, наблюдавшиеся в срок или в последний час перед сроком; фигурными скобками обозначены явления, наблюдавшиеся между сроками (за 1-3 часа до срока); квадратными скобками обозначены град или гололедные отложения с указанием их диаметра в мм.
Облачность - указаны через наклонную черту общая и нижняя облачность в баллах и высота нижней границы облаков в метрах; квадратными скобками обозначены формы облаков: Ci - перистые, Cs - перисто-слоистые, Cc - перисто-кучевые, Ac - высококучевые, As - высокослоистые, Sc - слоисто-кучевые, Ns - слоисто-дождевые, Cu - кучевые, Cb - кучево-дождевые. Подробнее классификацию облаков см. в Атласе облаков (PDF).
T - Температура воздуха - температура, измеренная на высоте 2 м над землей.
Td - Температура точки росы - температура, при понижении до которой содержащийся в воздухе водяной пар достигнет насыщения.
f - Относительная влажность воздуха - влажноcть воздуха, измеренная на высоте 2 м над землей.
Te - Эффективная температура - температура, которую ощущает одетый по сезону человек в тени. Характеристика душности погоды. При расчете учитывается влияние влажности воздуха и скорости ветра на теплоощущения человека.
Tes - Эффективная температура на солнце - температура, которую ощущает человек, с поправкой на солнечный нагрев. Характеристика знойности погоды. Зависит от высоты солнца над горизонтом, облачности и скорости ветра. Ночью, в пасмурную погоду, а также при ветре 12 м/с и более поправка равна нулю.
P - Атмосферное давление - приведенное к уровню моря атмосферное давление.
Po - Атмосферное давление - измеренное на уровне метеостанции атмосферное давление.
Tmin - Минимальная температура - минимум температуры воздуха на высоте 2 м над землей.
Tmax - Максимальная температура - максимум температуры воздуха на высоте 2 м над землей.
R - Количество осадков - Количество выпавших осадков за период времени, мм. При наведении курсора мыши на число - период времени, за который выпало указанное количество осадков.
R24 - Количество осадков - Количество выпавших осадков за 24 часа, мм.
S - Снежный покров - Высота снежного покрова, см. При наведении курсора мыши на число - состояние снежного покрова и степень покрытия местности в баллах.